TimeEDT,TemperatureF,Dew PointF,Humidity,Sea Level PressureIn,VisibilityMPH,Wind Direction,Wind SpeedMPH,Gust SpeedMPH,PrecipitationIn,Events,Conditions,WindDirDegrees,DateUTC
12:00 AM,80.6,73.4,79,29.99,6.2,Calm,Calm,-,N/A,,Mostly Cloudy,0,2013-09-10 04:00:00
1:00 AM,78.8,75.2,89,29.99,-9999.0,NE,3.5,-,N/A,,Mostly Cloudy,50,2013-09-10 05:00:00
2:00 AM,80.6,77.0,89,-9999,6.2,Variable,2.3,-,N/A,,Mostly Cloudy,0,2013-09-10 06:00:00
5:00 AM,79,76,90,29.96,9,,2.3,,,,Scattered Clouds,,2013-09-10 09:00:00
5:00 AM,78.8,77.0,94,29.96,6.2,Variable,2.3,-,N/A,,Partly Cloudy,0,2013-09-10 09:00:00
6:00 AM,78.8,75.2,89,29.96,6.2,Variable,1.2,-,N/A,,Partly Cloudy,0,2013-09-10 10:00:00
7:00 AM,80.6,75.2,84,29.98,6.2,East,3.5,-,N/A,,Scattered Clouds,80,2013-09-10 11:00:00
8:00 AM,80,77,88,29.99,9,Calm,Calm,,,,Mostly Cloudy,,2013-09-10 12:00:00
8:00 AM,80.6,77.0,89,29.98,6.2,Calm,Calm,-,N/A,,Mostly Cloudy,0,2013-09-10 12:00:00
9:00 AM,86.0,77.0,74,30.01,6.2,East,3.5,-,N/A,,Mostly Cloudy,90,2013-09-10 13:00:00
10:00 AM,75.2,71.6,89,30.02,4.3,East,9.2,-,N/A,Rain-Thunderstorm,Thunderstorms and Rain,90,2013-09-10 14:00:00
11:00 AM,81,78,88,30.03,9,Calm,Calm,,,,Partly Cloudy,,2013-09-10 15:00:00
11:00 AM,80.6,78.8,94,30.02,6.2,Calm,Calm,-,N/A,,Scattered Clouds,0,2013-09-10 15:00:00
12:00 PM,91.4,77.0,63,30.02,6.2,ESE,5.8,-,N/A,,Scattered Clouds,110,2013-09-10 16:00:00
1:00 PM,80.6,77.0,89,30.01,5.6,SE,6.9,-,N/A,Rain,Rain Showers,140,2013-09-10 17:00:00
2:00 PM,82,78,83,30.02,6,East,6.9,,,Rain,Heavy Rain Showers,80,2013-09-10 18:00:00
2:00 PM,82.4,78.8,89,30.02,5.0,East,6.9,-,N/A,Rain,Rain Showers,80,2013-09-10 18:00:00
2:17 PM,75.2,69.8,83,30.02,5.6,WNW,11.5,-,N/A,Rain-Thunderstorm,Light Thunderstorms and Rain,290,2013-09-10 18:17:00
3:00 PM,73.4,69.8,88,30.03,-9999.0,Variable,3.5,-,N/A,Rain-Thunderstorm,Thunderstorms and Rain,0,2013-09-10 19:00:00
3:22 PM,73.4,69.8,88,30.01,3.7,Variable,3.5,-,N/A,Rain-Thunderstorm,Light Thunderstorms and Rain,0,2013-09-10 19:22:00
4:00 PM,78.8,71.6,78,29.98,6.2,Variable,2.3,-,N/A,,Mostly Cloudy,0,2013-09-10 20:00:00
5:00 PM,83,77,77,30.00,8,East,2.3,,,,Partly Cloudy,90,2013-09-10 21:00:00
5:00 PM,82.4,77.0,84,30.00,6.2,Variable,2.3,-,N/A,,Mostly Cloudy,0,2013-09-10 21:00:00
6:00 PM,75.2,71.6,89,30.00,5.6,Variable,3.5,-,N/A,Rain,Light Rain Showers,0,2013-09-10 22:00:00
7:00 PM,78.8,71.6,78,30.01,5.6,Variable,3.5,-,N/A,Rain,Light Rain,0,2013-09-10 23:00:00
7:05 PM,78.8,71.6,78,30.03,5.6,Variable,3.5,-,N/A,Rain-Thunderstorm,Light Thunderstorms and Rain,0,2013-09-10 23:05:00
8:00 PM,76,75,95,30.04,8,NE,2.3,,,Thunderstorm,Thunderstorm,40,2013-09-11 00:00:00
8:00 PM,75.2,75.2,100,30.03,6.2,Variable,2.3,-,N/A,Thunderstorm,Thunderstorm,0,2013-09-11 00:00:00
9:00 PM,78.8,71.6,78,30.03,6.2,Calm,Calm,-,N/A,,Mostly Cloudy,0,2013-09-11 01:00:00
10:00 PM,77.0,71.6,83,30.06,6.2,Variable,3.5,-,N/A,,Mostly Cloudy,0,2013-09-11 02:00:00
11:00 PM,78,76,94,30.04,8,Calm,Calm,,,,Partly Cloudy,,2013-09-11 03:00:00
11:00 PM,78.8,77.0,94,30.04,6.2,Calm,Calm,-,N/A,,Mostly Cloudy,0,2013-09-11 03:00:00